Time,TemperatureF,DewpointF,PressureIn,WindDirection,WindDirectionDegrees,WindSpeedMPH,WindSpeedGustMPH,Humidity,HourlyPrecipIn,Conditions,Clouds,dailyrainin,SoftwareType,DateUTC
2013-01-19 00:00:00,42.6,23.8,30.15,NW,319,0.0,6.0,47,0.00,,---,0.00,VWS V14.01,2013-01-19 06:00:00,
2013-01-19 00:02:00,42.6,23.8,30.15,NW,319,1.0,1.0,47,0.00,,---,0.00,VWS V14.01,2013-01-19 06:02:00,
2013-01-19 00:07:00,42.6,23.8,30.15,ESE,103,0.0,6.0,47,0.00,,---,0.00,VWS V14.01,2013-01-19 06:07:00,
2013-01-19 00:10:00,42.5,23.7,30.15,SSW,210,1.0,6.0,47,0.00,,---,0.00,VWS V14.01,2013-01-19 06:10:00,
2013-01-19 00:12:00,42.5,23.7,30.15,SSW,208,7.0,7.0,47,0.00,,---,0.00,VWS V14.01,2013-01-19 06:12:00,
2013-01-19 00:17:00,42.6,23.8,30.15,SW,221,4.0,9.0,47,0.00,,---,0.00,VWS V14.01,2013-01-19 06:17:00,
2013-01-19 00:20:00,42.5,23.7,30.15,South,187,0.0,9.0,47,0.00,,---,0.00,VWS V14.01,2013-01-19 06:20:00,
2013-01-19 00:22:00,42.5,23.7,30.15,SSW,202,2.0,3.0,47,0.00,,---,0.00,VWS V14.01,2013-01-19 06:22:00,
2013-01-19 00:27:00,42.5,23.7,30.15,WSW,244,2.0,13.0,47,0.00,,---,0.00,VWS V14.01,2013-01-19 06:27:00,
2013-01-19 00:30:00,42.5,23.7,30.15,SSW,209,0.0,13.0,47,0.00,,---,0.00,VWS V14.01,2013-01-19 06:30:00,
2013-01-19 00:32:00,42.5,23.7,30.15,WSW,248,0.0,6.0,47,0.00,,---,0.00,VWS V14.01,2013-01-19 06:32:00,
2013-01-19 00:37:00,42.3,24.0,30.15,WNW,296,0.0,6.0,48,0.00,,---,0.00,VWS V14.01,2013-01-19 06:37:00,
2013-01-19 00:40:00,42.3,24.0,30.15,SW,236,1.0,11.0,48,0.00,,---,0.00,VWS V14.01,2013-01-19 06:40:00,
2013-01-19 00:42:00,42.3,24.0,30.15,SW,229,2.0,3.0,48,0.00,,---,0.00,VWS V14.01,2013-01-19 06:42:00,
2013-01-19 00:47:00,42.3,24.0,30.15,West,271,1.0,7.0,48,0.00,,---,0.00,VWS V14.01,2013-01-19 06:47:00,
2013-01-19 00:50:00,42.3,24.0,30.15,SW,219,0.0,7.0,48,0.00,,---,0.00,VWS V14.01,2013-01-19 06:50:00,
2013-01-19 00:52:00,42.3,24.0,30.15,SW,214,1.0,3.0,48,0.00,,---,0.00,VWS V14.01,2013-01-19 06:52:00,
2013-01-19 00:57:00,42.3,24.0,30.15,SSW,197,2.0,9.0,48,0.00,,---,0.00,VWS V14.01,2013-01-19 06:57:00,
2013-01-19 01:00:00,42.3,24.5,30.14,West,270,2.0,9.0,49,0.00,,---,0.00,VWS V14.01,2013-01-19 07:00:00,
2013-01-19 01:02:00,42.3,24.5,30.14,West,269,1.0,3.0,49,0.00,,---,0.00,VWS V14.01,2013-01-19 07:02:00,
2013-01-19 01:07:00,42.5,24.7,30.14,South,186,1.0,7.0,49,0.00,,---,0.00,VWS V14.01,2013-01-19 07:07:00,
2013-01-19 01:10:00,42.5,24.7,30.14,WSW,248,4.0,7.0,49,0.00,,---,0.00,VWS V14.01,2013-01-19 07:10:00,
2013-01-19 01:12:00,42.5,24.7,30.14,WNW,283,1.0,4.0,49,0.00,,---,0.00,VWS V14.01,2013-01-19 07:12:00,
2013-01-19 01:17:00,42.5,24.7,30.14,ENE,64,0.0,5.0,49,0.00,,---,0.00,VWS V14.01,2013-01-19 07:17:00,
2013-01-19 01:20:00,42.6,24.8,30.14,West,279,1.0,10.0,49,0.00,,---,0.00,VWS V14.01,2013-01-19 07:20:00,
2013-01-19 01:22:00,42.6,24.8,30.14,North,360,2.0,3.0,49,0.00,,---,0.00,VWS V14.01,2013-01-19 07:22:00,
2013-01-19 01:27:00,42.6,25.3,30.14,West,271,3.0,7.0,50,0.00,,---,0.00,VWS V14.01,2013-01-19 07:27:00,
2013-01-19 01:30:00,42.8,25.0,30.14,SSE,165,2.0,7.0,49,0.00,,---,0.00,VWS V14.01,2013-01-19 07:30:00,
2013-01-19 01:32:00,42.8,25.0,30.14,West,259,1.0,3.0,49,0.00,,---,0.00,VWS V14.01,2013-01-19 07:32:00,
2013-01-19 01:37:00,42.8,25.0,30.14,West,264,0.0,6.0,49,0.00,,---,0.00,VWS V14.01,2013-01-19 07:37:00,
2013-01-19 01:40:00,42.8,25.0,30.14,SW,236,1.0,6.0,49,0.00,,---,0.00,VWS V14.01,2013-01-19 07:40:00,
2013-01-19 01:42:00,42.8,25.0,30.14,SSW,211,2.0,3.0,49,0.00,,---,0.00,VWS V14.01,2013-01-19 07:42:00,
2013-01-19 01:47:00,42.6,25.3,30.14,West,272,4.0,4.0,50,0.00,,---,0.00,VWS V14.01,2013-01-19 07:47:00,
2013-01-19 01:50:00,42.6,25.3,30.14,WNW,285,0.0,6.0,50,0.00,,---,0.00,VWS V14.01,2013-01-19 07:50:00,
2013-01-19 01:52:00,42.6,25.3,30.14,SSW,196,0.0,4.0,50,0.00,,---,0.00,VWS V14.01,2013-01-19 07:52:00,
2013-01-19 01:57:00,42.6,25.3,30.14,West,276,0.0,11.0,50,0.00,,---,0.00,VWS V14.01,2013-01-19 07:57:00,
2013-01-19 02:00:00,42.6,25.3,30.14,SSE,154,0.0,11.0,50,0.00,,---,0.00,VWS V14.01,2013-01-19 08:00:00,
2013-01-19 02:02:00,42.6,25.3,30.14,ENE,62,2.0,4.0,50,0.00,,---,0.00,VWS V14.01,2013-01-19 08:02:00,
2013-01-19 02:07:00,42.6,25.3,30.14,NW,317,0.0,6.0,50,0.00,,---,0.00,VWS V14.01,2013-01-19 08:07:00,
2013-01-19 02:10:00,42.8,25.5,30.14,WSW,251,0.0,6.0,50,0.00,,---,0.00,VWS V14.01,2013-01-19 08:10:00,
2013-01-19 02:12:00,42.8,25.5,30.14,South,188,3.0,7.0,50,0.00,,---,0.00,VWS V14.01,2013-01-19 08:12:00,
2013-01-19 02:17:00,42.8,25.5,30.14,South,186,4.0,7.0,50,0.00,,---,0.00,VWS V14.01,2013-01-19 08:17:00,
2013-01-19 02:20:00,42.8,25.5,30.14,SE,134,0.0,7.0,50,0.00,,---,0.00,VWS V14.01,2013-01-19 08:20:00,
2013-01-19 02:22:00,42.8,25.5,30.14,NW,319,7.0,7.0,50,0.00,,---,0.00,VWS V14.01,2013-01-19 08:22:00,
2013-01-19 02:27:00,42.8,25.5,30.14,SSE,166,3.0,8.0,50,0.00,,---,0.00,VWS V14.01,2013-01-19 08:27:00,
2013-01-19 02:30:00,42.8,25.5,30.13,South,182,1.0,9.0,50,0.00,,---,0.00,VWS V14.01,2013-01-19 08:30:00,
2013-01-19 02:32:00,42.8,25.5,30.13,South,180,3.0,3.0,50,0.00,,---,0.00,VWS V14.01,2013-01-19 08:32:00,
2013-01-19 02:37:00,42.8,25.9,30.13,WSW,250,5.0,7.0,51,0.00,,---,0.00,VWS V14.01,2013-01-19 08:37:00,
2013-01-19 02:40:00,42.8,25.9,30.13,SW,227,3.0,7.0,51,0.00,,---,0.00,VWS V14.01,2013-01-19 08:40:00,
2013-01-19 02:42:00,42.8,25.9,30.13,SW,221,0.0,5.0,51,0.00,,---,0.00,VWS V14.01,2013-01-19 08:42:00,
2013-01-19 02:47:00,42.6,25.8,30.13,SW,214,2.0,5.0,51,0.00,,---,0.00,VWS V14.01,2013-01-19 08:47:00,
2013-01-19 02:50:00,42.6,26.2,30.13,WNW,284,1.0,6.0,52,0.00,,---,0.00,VWS V14.01,2013-01-19 08:50:00,
2013-01-19 02:52:00,42.5,26.1,30.13,WSW,249,6.0,6.0,52,0.00,,---,0.00,VWS V14.01,2013-01-19 08:52:00,
2013-01-19 02:57:00,42.5,26.1,30.13,WSW,242,0.0,10.0,52,0.00,,---,0.00,VWS V14.01,2013-01-19 08:57:00,
2013-01-19 03:00:00,42.3,25.9,30.13,SSW,202,3.0,10.0,52,0.00,,---,0.00,VWS V14.01,2013-01-19 09:00:00,
2013-01-19 03:02:00,42.3,25.9,30.13,SW,232,0.0,4.0,52,0.00,,---,0.00,VWS V14.01,2013-01-19 09:02:00,
2013-01-19 03:07:00,42.3,26.4,30.13,SSW,198,2.0,11.0,53,0.00,,---,0.00,VWS V14.01,2013-01-19 09:07:00,
2013-01-19 03:10:00,42.5,26.1,30.13,SW,227,2.0,11.0,52,0.00,,---,0.00,VWS V14.01,2013-01-19 09:10:00,
2013-01-19 03:12:00,42.5,26.1,30.13,SW,225,1.0,5.0,52,0.00,,---,0.00,VWS V14.01,2013-01-19 09:12:00,
2013-01-19 03:17:00,42.3,26.4,30.13,SW,217,0.0,7.0,53,0.00,,---,0.00,VWS V14.01,2013-01-19 09:17:00,
2013-01-19 03:20:00,42.3,26.4,30.13,SSW,213,0.0,7.0,53,0.00,,---,0.00,VWS V14.01,2013-01-19 09:20:00,
2013-01-19 03:22:00,42.3,26.4,30.13,SSW,213,0.0,1.0,53,0.00,,---,0.00,VWS V14.01,2013-01-19 09:22:00,
2013-01-19 03:27:00,42.2,26.3,30.13,WNW,303,3.0,4.0,53,0.00,,---,0.00,VWS V14.01,2013-01-19 09:27:00,
2013-01-19 03:30:00,42.2,26.3,30.12,WNW,285,2.0,6.0,53,0.00,,---,0.00,VWS V14.01,2013-01-19 09:30:00,
2013-01-19 03:32:00,42.2,26.3,30.12,SSW,206,2.0,5.0,53,0.00,,---,0.00,VWS V14.01,2013-01-19 09:32:00,
2013-01-19 03:37:00,42.2,26.3,30.12,NNW,348,3.0,5.0,53,0.00,,---,0.00,VWS V14.01,2013-01-19 09:37:00,
2013-01-19 03:40:00,42.2,26.8,30.12,SSE,163,0.0,6.0,54,0.00,,---,0.00,VWS V14.01,2013-01-19 09:40:00,
2013-01-19 03:42:00,42.2,26.8,30.12,WSW,249,2.0,5.0,54,0.00,,---,0.00,VWS V14.01,2013-01-19 09:42:00,
2013-01-19 03:47:00,42.2,26.8,30.11,WNW,283,0.0,5.0,54,0.00,,---,0.00,VWS V14.01,2013-01-19 09:47:00,
2013-01-19 03:50:00,42.2,26.8,30.11,SW,219,1.0,6.0,54,0.00,,---,0.00,VWS V14.01,2013-01-19 09:50:00,
2013-01-19 03:52:00,42.2,26.8,30.11,SSE,167,0.0,3.0,54,0.00,,---,0.00,VWS V14.01,2013-01-19 09:52:00,
2013-01-19 03:57:00,42.1,26.7,30.11,NE,38,2.0,5.0,54,0.00,,---,0.00,VWS V14.01,2013-01-19 09:57:00,
2013-01-19 04:00:00,42.1,26.7,30.11,South,188,2.0,9.0,54,0.00,,---,0.00,VWS V14.01,2013-01-19 10:00:00,
2013-01-19 04:02:00,42.1,26.7,30.11,West,260,0.0,4.0,54,0.00,,---,0.00,VWS V14.01,2013-01-19 10:02:00,
2013-01-19 04:07:00,41.9,26.5,30.11,South,185,3.0,4.0,54,0.00,,---,0.00,VWS V14.01,2013-01-19 10:07:00,
2013-01-19 04:10:00,41.9,26.5,30.11,WSW,248,0.0,5.0,54,0.00,,---,0.00,VWS V14.01,2013-01-19 10:10:00,
2013-01-19 04:12:00,41.9,26.5,30.11,WSW,238,3.0,7.0,54,0.00,,---,0.00,VWS V14.01,2013-01-19 10:12:00,
2013-01-19 04:17:00,41.8,26.8,30.12,West,281,0.0,7.0,55,0.00,,---,0.00,VWS V14.01,2013-01-19 10:17:00,
2013-01-19 04:20:00,41.9,26.9,30.12,West,275,3.0,10.0,55,0.00,,---,0.00,VWS V14.01,2013-01-19 10:20:00,
2013-01-19 04:22:00,41.9,26.9,30.12,NNW,334,2.0,5.0,55,0.00,,---,0.00,VWS V14.01,2013-01-19 10:22:00,
2013-01-19 04:27:00,41.9,26.9,30.12,SSW,209,4.0,6.0,55,0.00,,---,0.00,VWS V14.01,2013-01-19 10:27:00,
2013-01-19 04:30:00,42.2,27.2,30.11,WSW,246,1.0,15.0,55,0.00,,---,0.00,VWS V14.01,2013-01-19 10:30:00,
2013-01-19 04:32:00,42.2,27.2,30.11,ESE,121,3.0,4.0,55,0.00,,---,0.00,VWS V14.01,2013-01-19 10:32:00,
2013-01-19 04:37:00,42.3,27.3,30.11,SW,226,10.0,10.0,55,0.00,,---,0.00,VWS V14.01,2013-01-19 10:37:00,
2013-01-19 04:40:00,42.3,27.3,30.11,South,173,5.0,10.0,55,0.00,,---,0.00,VWS V14.01,2013-01-19 10:40:00,
2013-01-19 04:42:00,42.3,27.3,30.11,South,173,0.0,5.0,55,0.00,,---,0.00,VWS V14.01,2013-01-19 10:42:00,
2013-01-19 04:47:00,42.5,27.9,30.11,WNW,303,0.0,5.0,56,0.00,,---,0.00,VWS V14.01,2013-01-19 10:47:00,
2013-01-19 04:50:00,42.5,27.9,30.11,WSW,244,4.0,8.0,56,0.00,,---,0.00,VWS V14.01,2013-01-19 10:50:00,
2013-01-19 04:52:00,42.5,27.9,30.11,SSW,196,2.0,4.0,56,0.00,,---,0.00,VWS V14.01,2013-01-19 10:52:00,
2013-01-19 04:57:00,42.8,28.2,30.11,WSW,247,0.0,9.0,56,0.00,,---,0.00,VWS V14.01,2013-01-19 10:57:00,
2013-01-19 05:00:00,42.8,28.2,30.10,WNW,286,0.0,12.0,56,0.00,,---,0.00,VWS V14.01,2013-01-19 11:00:00,
2013-01-19 05:02:00,42.8,28.2,30.10,WSW,237,5.0,11.0,56,0.00,,---,0.00,VWS V14.01,2013-01-19 11:02:00,
2013-01-19 05:07:00,42.8,28.2,30.10,SSW,208,3.0,11.0,56,0.00,,---,0.00,VWS V14.01,2013-01-19 11:07:00,
2013-01-19 05:10:00,42.8,28.2,30.10,SSE,159,2.0,11.0,56,0.00,,---,0.00,VWS V14.01,2013-01-19 11:10:00,
2013-01-19 05:12:00,42.8,28.2,30.10,West,263,3.0,11.0,56,0.00,,---,0.00,VWS V14.01,2013-01-19 11:12:00,
2013-01-19 05:20:00,43.1,28.5,30.11,NW,306,4.0,11.0,56,0.00,,---,0.00,VWS V14.01,2013-01-19 11:20:00,
2013-01-19 05:30:00,43.2,28.6,30.11,SW,228,3.0,11.0,56,0.00,,---,0.00,VWS V14.01,2013-01-19 11:30:00,
2013-01-19 05:40:00,43.5,28.9,30.11,WNW,284,9.0,13.0,56,0.00,,---,0.00,VWS V14.01,2013-01-19 11:40:00,
2013-01-19 05:50:00,43.6,29.0,30.11,ESE,116,3.0,12.0,56,0.00,,---,0.00,VWS V14.01,2013-01-19 11:50:00,
2013-01-19 06:00:00,43.5,28.9,30.11,West,264,3.0,13.0,56,0.00,,---,0.00,VWS V14.01,2013-01-19 12:00:00,
2013-01-19 06:10:00,43.6,29.0,30.11,West,271,5.0,16.0,56,0.00,,---,0.00,VWS V14.01,2013-01-19 12:10:00,
2013-01-19 06:20:00,43.5,28.9,30.12,WSW,246,6.0,13.0,56,0.00,,---,0.00,VWS V14.01,2013-01-19 12:20:00,
2013-01-19 06:30:00,43.3,29.1,30.12,West,271,4.0,8.0,57,0.00,,---,0.00,VWS V14.01,2013-01-19 12:30:00,
2013-01-19 06:40:00,43.2,29.0,30.12,North,355,1.0,12.0,57,0.00,,---,0.00,VWS V14.01,2013-01-19 12:40:00,
2013-01-19 06:47:00,43.2,29.4,30.12,WSW,255,1.0,6.0,58,0.00,,---,0.00,VWS V14.01,2013-01-19 12:47:00,
2013-01-19 06:48:00,43.1,29.3,30.12,WSW,255,0.0,6.0,58,0.00,,---,0.00,VWS V14.01,2013-01-19 12:48:00,
2013-01-19 06:50:00,43.1,29.3,30.12,WSW,255,0.0,6.0,58,0.00,,---,0.00,VWS V14.01,2013-01-19 12:50:00,
2013-01-19 06:53:00,43.1,29.3,30.12,West,277,9.0,9.0,58,0.00,,---,0.00,VWS V14.01,2013-01-19 12:53:00,
2013-01-19 06:58:00,42.9,29.2,30.12,West,269,1.0,13.0,58,0.00,,---,0.00,VWS V14.01,2013-01-19 12:58:00,
2013-01-19 07:00:00,42.9,29.2,30.12,NE,38,2.0,13.0,58,0.00,,---,0.00,VWS V14.01,2013-01-19 13:00:00,
2013-01-19 07:03:00,42.9,29.2,30.12,WSW,246,1.0,3.0,58,0.00,,---,0.00,VWS V14.01,2013-01-19 13:03:00,
2013-01-19 07:08:00,42.8,29.1,30.12,SW,236,4.0,6.0,58,0.00,,---,0.00,VWS V14.01,2013-01-19 13:08:00,
2013-01-19 07:10:00,42.8,29.1,30.12,WSW,256,1.0,6.0,58,0.00,,---,0.00,VWS V14.01,2013-01-19 13:10:00,
2013-01-19 07:13:00,42.8,29.1,30.12,WSW,238,0.0,9.0,58,0.00,,---,0.00,VWS V14.01,2013-01-19 13:13:00,
2013-01-19 07:18:00,42.8,29.1,30.13,SW,233,0.0,11.0,58,0.00,,---,0.00,VWS V14.01,2013-01-19 13:18:00,
2013-01-19 07:20:00,42.8,29.1,30.13,SW,223,3.0,11.0,58,0.00,,---,0.00,VWS V14.01,2013-01-19 13:20:00,
2013-01-19 07:23:00,42.8,29.1,30.13,SW,229,2.0,5.0,58,0.00,,---,0.00,VWS V14.01,2013-01-19 13:23:00,
2013-01-19 07:28:00,42.8,29.5,30.13,SSE,161,3.0,10.0,59,0.00,,---,0.00,VWS V14.01,2013-01-19 13:28:00,
2013-01-19 07:30:00,42.9,29.6,30.13,SW,225,1.0,11.0,59,0.00,,---,0.00,VWS V14.01,2013-01-19 13:30:00,
2013-01-19 07:33:00,42.9,29.2,30.13,West,273,0.0,5.0,58,0.00,,---,0.00,VWS V14.01,2013-01-19 13:33:00,
2013-01-19 07:38:00,42.9,29.2,30.13,WSW,243,1.0,6.0,58,0.00,,---,0.00,VWS V14.01,2013-01-19 13:38:00,
2013-01-19 07:40:00,42.9,29.2,30.13,SSE,163,2.0,6.0,58,0.00,,---,0.00,VWS V14.01,2013-01-19 13:40:00,
2013-01-19 07:43:00,42.9,29.2,30.13,SSW,205,3.0,5.0,58,0.00,,---,0.00,VWS V14.01,2013-01-19 13:43:00,
2013-01-19 07:48:00,42.9,29.6,30.13,WSW,237,5.0,7.0,59,0.00,,---,0.00,VWS V14.01,2013-01-19 13:48:00,
2013-01-19 07:50:00,42.9,29.6,30.13,SE,140,2.0,7.0,59,0.00,,---,0.00,VWS V14.01,2013-01-19 13:50:00,
2013-01-19 07:53:00,42.9,29.6,30.13,SE,140,2.0,2.0,59,0.00,,---,0.00,VWS V14.01,2013-01-19 13:53:00,
2013-01-19 07:58:00,42.8,29.5,30.13,West,280,1.0,9.0,59,0.00,,---,0.00,VWS V14.01,2013-01-19 13:58:00,
2013-01-19 08:00:00,42.8,29.5,30.12,SW,235,1.0,9.0,59,0.00,,---,0.00,VWS V14.01,2013-01-19 14:00:00,
2013-01-19 08:03:00,42.8,29.5,30.12,SW,236,2.0,4.0,59,0.00,,---,0.00,VWS V14.01,2013-01-19 14:03:00,
2013-01-19 08:08:00,42.8,29.5,30.12,SW,230,5.0,12.0,59,0.00,,---,0.00,VWS V14.01,2013-01-19 14:08:00,
2013-01-19 08:10:00,42.9,29.6,30.12,SSW,199,3.0,12.0,59,0.00,,---,0.00,VWS V14.01,2013-01-19 14:10:00,
2013-01-19 08:13:00,42.9,29.6,30.12,SW,226,3.0,5.0,59,0.00,,---,0.00,VWS V14.01,2013-01-19 14:13:00,
2013-01-19 08:18:00,43.1,29.8,30.13,SSW,201,0.0,10.0,59,0.00,,---,0.00,VWS V14.01,2013-01-19 14:18:00,
2013-01-19 08:20:00,43.2,29.4,30.13,WSW,244,3.0,11.0,58,0.00,,---,0.00,VWS V14.01,2013-01-19 14:20:00,
2013-01-19 08:23:00,43.2,29.4,30.13,NW,323,1.0,3.0,58,0.00,,---,0.00,VWS V14.01,2013-01-19 14:23:00,
2013-01-19 08:28:00,43.3,29.5,30.13,SW,222,2.0,10.0,58,0.00,,---,0.00,VWS V14.01,2013-01-19 14:28:00,
2013-01-19 08:30:00,43.3,29.5,30.13,WSW,253,2.0,10.0,58,0.00,,---,0.00,VWS V14.01,2013-01-19 14:30:00,
2013-01-19 08:33:00,43.3,29.5,30.13,WSW,253,0.0,3.0,58,0.00,,---,0.00,VWS V14.01,2013-01-19 14:33:00,
2013-01-19 08:38:00,43.6,29.8,30.13,SSW,205,1.0,6.0,58,0.00,,---,0.00,VWS V14.01,2013-01-19 14:38:00,
2013-01-19 08:40:00,43.8,30.4,30.13,NNE,19,1.0,6.0,59,0.00,,---,0.00,VWS V14.01,2013-01-19 14:40:00,
2013-01-19 08:43:00,43.9,30.1,30.13,SSW,203,1.0,4.0,58,0.00,,---,0.00,VWS V14.01,2013-01-19 14:43:00,
2013-01-19 08:48:00,44.1,30.3,30.13,SSW,198,3.0,9.0,58,0.00,,---,0.00,VWS V14.01,2013-01-19 14:48:00,
2013-01-19 08:50:00,44.2,30.4,30.13,South,187,6.0,9.0,58,0.00,,---,0.00,VWS V14.01,2013-01-19 14:50:00,
2013-01-19 08:53:00,44.3,30.5,30.13,SW,222,1.0,8.0,58,0.00,,---,0.00,VWS V14.01,2013-01-19 14:53:00,
2013-01-19 08:58:00,44.6,30.8,30.13,SW,221,0.0,9.0,58,0.00,,---,0.00,VWS V14.01,2013-01-19 14:58:00,
2013-01-19 09:00:00,44.8,30.5,30.13,SW,219,3.0,10.0,57,0.00,,---,0.00,VWS V14.01,2013-01-19 15:00:00,
2013-01-19 09:03:00,45.1,30.8,30.13,West,269,3.0,7.0,57,0.00,,---,0.00,VWS V14.01,2013-01-19 15:03:00,
2013-01-19 09:08:00,45.4,30.6,30.13,SSE,150,1.0,7.0,56,0.00,,---,0.00,VWS V14.01,2013-01-19 15:08:00,
2013-01-19 09:10:00,45.5,31.2,30.13,South,191,7.0,7.0,57,0.00,,---,0.00,VWS V14.01,2013-01-19 15:10:00,
2013-01-19 09:13:00,45.7,30.9,30.13,SSW,213,3.0,7.0,56,0.00,,---,0.00,VWS V14.01,2013-01-19 15:13:00,
2013-01-19 09:18:00,46.0,30.8,30.13,West,275,3.0,8.0,55,0.00,,---,0.00,VWS V14.01,2013-01-19 15:18:00,
2013-01-19 09:20:00,46.1,31.3,30.13,West,259,5.0,8.0,56,0.00,,---,0.00,VWS V14.01,2013-01-19 15:20:00,
2013-01-19 09:23:00,46.1,30.9,30.13,SW,229,3.0,13.0,55,0.00,,---,0.00,VWS V14.01,2013-01-19 15:23:00,
2013-01-19 09:28:00,46.4,31.1,30.13,West,261,1.0,13.0,55,0.00,,---,0.00,VWS V14.01,2013-01-19 15:28:00,
2013-01-19 09:30:00,46.5,31.2,30.14,WSW,251,1.0,13.0,55,0.00,,---,0.00,VWS V14.01,2013-01-19 15:30:00,
2013-01-19 09:33:00,46.8,31.5,30.14,WNW,291,2.0,10.0,55,0.00,,---,0.00,VWS V14.01,2013-01-19 15:33:00,
2013-01-19 09:38:00,47.1,31.8,30.14,West,269,5.0,10.0,55,0.00,,---,0.00,VWS V14.01,2013-01-19 15:38:00,
2013-01-19 09:40:00,47.3,31.5,30.14,WSW,250,2.0,10.0,54,0.00,,---,0.00,VWS V14.01,2013-01-19 15:40:00,
2013-01-19 09:43:00,47.4,31.6,30.14,SW,230,5.0,5.0,54,0.00,,---,0.00,VWS V14.01,2013-01-19 15:43:00,
2013-01-19 09:48:00,47.9,31.6,30.14,North,355,4.0,11.0,53,0.00,,---,0.00,VWS V14.01,2013-01-19 15:48:00,
2013-01-19 09:50:00,48.2,31.9,30.14,SSW,205,1.0,11.0,53,0.00,,---,0.00,VWS V14.01,2013-01-19 15:50:00,
2013-01-19 09:53:00,48.5,32.2,30.14,West,263,9.0,11.0,53,0.00,,---,0.00,VWS V14.01,2013-01-19 15:53:00,
2013-01-19 09:58:00,48.8,32.0,30.14,WNW,291,5.0,11.0,52,0.00,,---,0.00,VWS V14.01,2013-01-19 15:58:00,
2013-01-19 10:00:00,48.9,32.1,30.15,SW,225,4.0,11.0,52,0.00,,---,0.00,VWS V14.01,2013-01-19 16:00:00,
2013-01-19 10:03:00,48.9,32.1,30.15,SW,225,4.0,4.0,52,0.00,,---,0.00,VWS V14.01,2013-01-19 16:03:00,
2013-01-19 10:08:00,49.5,31.6,30.15,WSW,248,3.0,12.0,50,0.00,,---,0.00,VWS V14.01,2013-01-19 16:08:00,
2013-01-19 10:10:00,49.6,31.7,30.15,NNE,31,3.0,12.0,50,0.00,,---,0.00,VWS V14.01,2013-01-19 16:10:00,
2013-01-19 10:13:00,49.8,31.9,30.15,West,263,5.0,9.0,50,0.00,,---,0.00,VWS V14.01,2013-01-19 16:13:00,
2013-01-19 10:18:00,50.1,32.2,30.15,NW,320,3.0,12.0,50,0.00,,---,0.00,VWS V14.01,2013-01-19 16:18:00,
2013-01-19 10:20:00,50.4,32.5,30.15,West,263,6.0,12.0,50,0.00,,---,0.00,VWS V14.01,2013-01-19 16:20:00,
2013-01-19 10:23:00,50.5,32.1,30.15,WSW,248,4.0,6.0,49,0.00,,---,0.00,VWS V14.01,2013-01-19 16:23:00,
2013-01-19 10:28:00,50.8,31.8,30.15,WNW,298,4.0,14.0,48,0.00,,---,0.00,VWS V14.01,2013-01-19 16:28:00,
2013-01-19 10:30:00,51.1,32.6,30.15,NNW,338,3.0,14.0,49,0.00,,---,0.00,VWS V14.01,2013-01-19 16:30:00,
2013-01-19 10:33:00,51.3,32.8,30.15,NNE,18,1.0,9.0,49,0.00,,---,0.00,VWS V14.01,2013-01-19 16:33:00,
2013-01-19 10:38:00,51.6,33.1,30.15,West,266,6.0,9.0,49,0.00,,---,0.00,VWS V14.01,2013-01-19 16:38:00,
2013-01-19 10:40:00,51.7,32.7,30.15,WSW,258,1.0,10.0,48,0.00,,---,0.00,VWS V14.01,2013-01-19 16:40:00,
2013-01-19 10:43:00,52.3,33.7,30.15,WSW,244,6.0,8.0,49,0.00,,---,0.00,VWS V14.01,2013-01-19 16:43:00,
2013-01-19 10:48:00,52.6,32.4,30.14,WNW,284,0.0,12.0,46,0.00,,---,0.00,VWS V14.01,2013-01-19 16:48:00,
2013-01-19 10:50:00,52.8,32.6,30.14,West,267,0.0,12.0,46,0.00,,---,0.00,VWS V14.01,2013-01-19 16:50:00,
2013-01-19 10:53:00,52.9,32.7,30.14,WSW,246,2.0,7.0,46,0.00,,---,0.00,VWS V14.01,2013-01-19 16:53:00,
2013-01-19 10:58:00,53.1,32.3,30.14,WSW,251,4.0,12.0,45,0.00,,---,0.00,VWS V14.01,2013-01-19 16:58:00,
2013-01-19 11:00:00,53.3,33.1,30.13,SW,221,4.0,12.0,46,0.00,,---,0.00,VWS V14.01,2013-01-19 17:00:00,
2013-01-19 11:03:00,53.3,32.5,30.13,West,271,3.0,11.0,45,0.00,,---,0.00,VWS V14.01,2013-01-19 17:03:00,
2013-01-19 11:08:00,53.6,32.2,30.13,WNW,292,0.0,13.0,44,0.00,,---,0.00,VWS V14.01,2013-01-19 17:08:00,
2013-01-19 11:10:00,53.9,33.1,30.13,NNW,334,9.0,13.0,45,0.00,,---,0.00,VWS V14.01,2013-01-19 17:10:00,
2013-01-19 11:13:00,54.2,32.2,30.13,WSW,249,6.0,9.0,43,0.00,,---,0.00,VWS V14.01,2013-01-19 17:13:00,
2013-01-19 11:19:00,54.7,33.2,30.13,NW,325,3.0,12.0,44,0.00,,---,0.00,VWS V14.01,2013-01-19 17:19:00,
2013-01-19 11:20:00,54.8,33.3,30.13,West,275,1.0,12.0,44,0.00,,---,0.00,VWS V14.01,2013-01-19 17:20:00,
2013-01-19 11:24:00,55.4,33.9,30.13,WSW,254,6.0,6.0,44,0.00,,---,0.00,VWS V14.01,2013-01-19 17:24:00,
2013-01-19 11:29:00,55.6,32.9,30.13,West,265,2.0,15.0,42,0.00,,---,0.00,VWS V14.01,2013-01-19 17:29:00,
2013-01-19 11:30:00,55.6,33.5,30.12,West,271,1.0,15.0,43,0.00,,---,0.00,VWS V14.01,2013-01-19 17:30:00,
2013-01-19 11:34:00,55.6,33.5,30.12,WNW,298,5.0,11.0,43,0.00,,---,0.00,VWS V14.01,2013-01-19 17:34:00,
2013-01-19 11:39:00,55.6,33.5,30.12,WSW,252,8.0,11.0,43,0.00,,---,0.00,VWS V14.01,2013-01-19 17:39:00,
2013-01-19 11:40:00,55.6,32.9,30.12,NW,325,4.0,11.0,42,0.00,,---,0.00,VWS V14.01,2013-01-19 17:40:00,
2013-01-19 11:44:00,55.9,32.6,30.12,NNW,348,6.0,10.0,41,0.00,,---,0.00,VWS V14.01,2013-01-19 17:44:00,
2013-01-19 11:49:00,56.5,32.5,30.11,NNE,22,1.0,10.0,40,0.00,,---,0.00,VWS V14.01,2013-01-19 17:49:00,
2013-01-19 11:50:00,56.5,33.1,30.11,WSW,245,7.0,13.0,41,0.00,,---,0.00,VWS V14.01,2013-01-19 17:50:00,
2013-01-19 11:54:00,56.2,34.0,30.11,SSW,204,0.0,7.0,43,0.00,,---,0.00,VWS V14.01,2013-01-19 17:54:00,
2013-01-19 11:59:00,57.0,32.9,30.11,West,271,0.0,8.0,40,0.00,,---,0.00,VWS V14.01,2013-01-19 17:59:00,
2013-01-19 12:00:00,57.5,34.0,30.09,NW,317,3.0,8.0,41,0.00,,---,0.00,VWS V14.01,2013-01-19 18:00:00,
2013-01-19 12:04:00,57.8,33.7,30.09,West,263,5.0,6.0,40,0.00,,---,0.00,VWS V14.01,2013-01-19 18:04:00,
2013-01-19 12:10:00,58.1,33.3,30.09,WSW,247,11.0,11.0,39,0.00,,---,0.00,VWS V14.01,2013-01-19 18:10:00,
2013-01-19 12:15:00,58.3,32.8,30.08,WNW,282,7.0,12.0,38,0.00,,---,0.00,VWS V14.01,2013-01-19 18:15:00,
2013-01-19 12:20:00,58.4,34.2,30.08,SSW,213,9.0,12.0,40,0.00,,---,0.00,VWS V14.01,2013-01-19 18:20:00,
2013-01-19 12:25:00,58.3,34.7,30.08,NW,315,1.0,14.0,41,0.00,,---,0.00,VWS V14.01,2013-01-19 18:25:00,
2013-01-19 12:30:00,59.0,33.5,30.08,WSW,255,1.0,14.0,38,0.00,,---,0.00,VWS V14.01,2013-01-19 18:30:00,
2013-01-19 12:35:00,58.9,33.4,30.08,WSW,252,3.0,6.0,38,0.00,,---,0.00,VWS V14.01,2013-01-19 18:35:00,
2013-01-19 12:40:00,58.9,34.6,30.08,SSW,200,3.0,11.0,40,0.00,,---,0.00,VWS V14.01,2013-01-19 18:40:00,
2013-01-19 12:45:00,59.0,33.5,30.07,WSW,253,7.0,11.0,38,0.00,,---,0.00,VWS V14.01,2013-01-19 18:45:00,
2013-01-19 12:50:00,59.6,33.3,30.07,SW,235,12.0,14.0,37,0.00,,---,0.00,VWS V14.01,2013-01-19 18:50:00,
2013-01-19 12:55:00,59.5,35.2,30.07,WSW,254,2.0,9.0,40,0.00,,---,0.00,VWS V14.01,2013-01-19 18:55:00,
2013-01-19 13:00:00,59.5,33.2,30.07,WSW,238,1.0,9.0,37,0.00,,---,0.00,VWS V14.01,2013-01-19 19:00:00,
2013-01-19 13:01:00,59.5,33.2,30.07,WSW,238,1.0,9.0,37,0.00,,---,0.00,VWS V14.01,2013-01-19 19:01:00,
2013-01-19 13:06:00,59.9,34.9,30.07,NW,307,2.0,11.0,39,0.00,,---,0.00,VWS V14.01,2013-01-19 19:06:00,
2013-01-19 13:10:00,60.2,33.8,30.07,WNW,290,2.0,15.0,37,0.00,,---,0.00,VWS V14.01,2013-01-19 19:10:00,
2013-01-19 13:11:00,60.2,33.8,30.07,WNW,290,2.0,15.0,37,0.00,,---,0.00,VWS V14.01,2013-01-19 19:11:00,
2013-01-19 13:16:00,61.0,33.2,30.05,NW,311,4.0,10.0,35,0.00,,---,0.00,VWS V14.01,2013-01-19 19:16:00,
2013-01-19 13:20:00,61.5,33.6,30.05,WNW,302,2.0,10.0,35,0.00,,---,0.00,VWS V14.01,2013-01-19 19:20:00,
2013-01-19 13:21:00,61.5,33.6,30.05,WNW,302,2.0,10.0,35,0.00,,---,0.00,VWS V14.01,2013-01-19 19:21:00,
2013-01-19 13:26:00,61.6,33.0,30.05,WSW,246,2.0,8.0,34,0.00,,---,0.00,VWS V14.01,2013-01-19 19:26:00,
2013-01-19 13:30:00,61.8,34.6,30.04,WNW,297,0.0,8.0,36,0.00,,---,0.00,VWS V14.01,2013-01-19 19:30:00,
2013-01-19 13:31:00,62.3,35.0,30.04,WNW,301,1.0,2.0,36,0.00,,---,0.00,VWS V14.01,2013-01-19 19:31:00,
2013-01-19 13:36:00,61.5,32.9,30.04,West,259,0.0,10.0,34,0.00,,---,0.00,VWS V14.01,2013-01-19 19:36:00,
2013-01-19 13:40:00,61.5,32.9,30.04,WSW,247,3.0,10.0,34,0.00,,---,0.00,VWS V14.01,2013-01-19 19:40:00,
2013-01-19 13:41:00,61.3,33.4,30.04,WNW,298,4.0,11.0,35,0.00,,---,0.00,VWS V14.01,2013-01-19 19:41:00,
2013-01-19 13:47:00,60.7,33.6,30.03,WNW,283,6.0,12.0,36,0.00,,---,0.00,VWS V14.01,2013-01-19 19:47:00,
2013-01-19 13:50:00,60.7,33.6,30.03,SW,217,1.0,15.0,36,0.00,,---,0.00,VWS V14.01,2013-01-19 19:50:00,
2013-01-19 13:53:00,60.9,33.8,30.03,North,349,10.0,13.0,36,0.00,,---,0.00,VWS V14.01,2013-01-19 19:53:00,
2013-01-19 13:58:00,60.5,34.1,30.03,WNW,284,2.0,13.0,37,0.00,,---,0.00,VWS V14.01,2013-01-19 19:58:00,
2013-01-19 14:00:00,61.3,34.8,30.03,NW,317,0.0,13.0,37,0.00,,---,0.00,VWS V14.01,2013-01-19 20:00:00,
2013-01-19 14:03:00,61.6,33.7,30.03,West,259,1.0,6.0,35,0.00,,---,0.00,VWS V14.01,2013-01-19 20:03:00,
2013-01-19 14:08:00,62.0,34.1,30.03,SW,224,6.0,10.0,35,0.00,,---,0.00,VWS V14.01,2013-01-19 20:08:00,
2013-01-19 14:10:00,61.2,33.3,30.03,WSW,251,2.0,11.0,35,0.00,,---,0.00,VWS V14.01,2013-01-19 20:10:00,
2013-01-19 14:13:00,61.5,34.3,30.03,WSW,242,12.0,13.0,36,0.00,,---,0.00,VWS V14.01,2013-01-19 20:13:00,
2013-01-19 14:18:00,62.0,34.1,30.03,NW,311,6.0,13.0,35,0.00,,---,0.00,VWS V14.01,2013-01-19 20:18:00,
2013-01-19 14:20:00,61.6,33.7,30.03,WSW,246,4.0,13.0,35,0.00,,---,0.00,VWS V14.01,2013-01-19 20:20:00,
2013-01-19 14:23:00,61.3,33.4,30.03,NNW,342,5.0,9.0,35,0.00,,---,0.00,VWS V14.01,2013-01-19 20:23:00,
2013-01-19 14:28:00,63.2,35.1,30.03,West,267,6.0,9.0,35,0.00,,---,0.00,VWS V14.01,2013-01-19 20:28:00,
2013-01-19 14:30:00,63.1,32.8,30.03,SSW,201,0.0,9.0,32,0.00,,---,0.00,VWS V14.01,2013-01-19 20:30:00,
2013-01-19 14:33:00,62.7,33.2,30.03,NW,306,2.0,7.0,33,0.00,,---,0.00,VWS V14.01,2013-01-19 20:33:00,
2013-01-19 14:38:00,62.4,33.7,30.03,West,278,6.0,14.0,34,0.00,,---,0.00,VWS V14.01,2013-01-19 20:38:00,
2013-01-19 14:40:00,62.1,33.4,30.03,West,261,10.0,14.0,34,0.00,,---,0.00,VWS V14.01,2013-01-19 20:40:00,
2013-01-19 14:43:00,61.6,33.0,30.03,West,275,5.0,10.0,34,0.00,,---,0.00,VWS V14.01,2013-01-19 20:43:00,
2013-01-19 14:48:00,61.8,33.2,30.03,WNW,285,0.0,10.0,34,0.00,,---,0.00,VWS V14.01,2013-01-19 20:48:00,
2013-01-19 14:50:00,62.7,33.2,30.03,WSW,250,4.0,11.0,33,0.00,,---,0.00,VWS V14.01,2013-01-19 20:50:00,
2013-01-19 14:53:00,62.3,32.9,30.03,WSW,249,12.0,12.0,33,0.00,,---,0.00,VWS V14.01,2013-01-19 20:53:00,
2013-01-19 14:58:00,62.3,33.6,30.03,WNW,286,4.0,12.0,34,0.00,,---,0.00,VWS V14.01,2013-01-19 20:58:00,
2013-01-19 15:00:00,62.1,32.7,30.03,WSW,252,5.0,12.0,33,0.00,,---,0.00,VWS V14.01,2013-01-19 21:00:00,
2013-01-19 15:03:00,62.6,34.6,30.03,WSW,258,2.0,8.0,35,0.00,,---,0.00,VWS V14.01,2013-01-19 21:03:00,
2013-01-19 15:09:00,62.4,32.9,30.03,WSW,249,2.0,8.0,33,0.00,,---,0.00,VWS V14.01,2013-01-19 21:09:00,
2013-01-19 15:10:00,62.6,33.9,30.03,WNW,283,5.0,9.0,34,0.00,,---,0.00,VWS V14.01,2013-01-19 21:10:00,
2013-01-19 15:14:00,62.3,33.6,30.03,West,262,1.0,5.0,34,0.00,,---,0.00,VWS V14.01,2013-01-19 21:14:00,
2013-01-19 15:19:00,61.5,32.9,30.03,West,264,6.0,15.0,34,0.00,,---,0.00,VWS V14.01,2013-01-19 21:19:00,
2013-01-19 15:20:00,61.2,33.3,30.03,WNW,288,0.0,15.0,35,0.00,,---,0.00,VWS V14.01,2013-01-19 21:20:00,
2013-01-19 15:24:00,62.3,35.0,30.03,NW,305,2.0,11.0,36,0.00,,---,0.00,VWS V14.01,2013-01-19 21:24:00,
2013-01-19 15:29:00,61.5,34.3,30.03,WSW,256,4.0,11.0,36,0.00,,---,0.00,VWS V14.01,2013-01-19 21:29:00,
2013-01-19 15:30:00,61.2,33.3,30.03,WNW,282,3.0,11.0,35,0.00,,---,0.00,VWS V14.01,2013-01-19 21:30:00,
2013-01-19 15:34:00,61.8,34.6,30.03,WSW,242,4.0,9.0,36,0.00,,---,0.00,VWS V14.01,2013-01-19 21:34:00,
2013-01-19 15:39:00,61.8,33.9,30.03,WNW,292,1.0,10.0,35,0.00,,---,0.00,VWS V14.01,2013-01-19 21:39:00,
2013-01-19 15:40:00,61.8,33.9,30.03,WSW,246,0.0,10.0,35,0.00,,---,0.00,VWS V14.01,2013-01-19 21:40:00,
2013-01-19 15:44:00,61.8,33.9,30.03,WNW,291,6.0,8.0,35,0.00,,---,0.00,VWS V14.01,2013-01-19 21:44:00,
2013-01-19 15:50:00,61.3,33.4,30.02,WNW,286,5.0,8.0,35,0.00,,---,0.00,VWS V14.01,2013-01-19 21:50:00,
2013-01-19 15:55:00,61.2,34.1,30.02,SSW,206,3.0,10.0,36,0.00,,---,0.00,VWS V14.01,2013-01-19 21:55:00,
2013-01-19 16:00:00,62.0,34.1,30.03,North,355,1.0,10.0,35,0.00,,---,0.00,VWS V14.01,2013-01-19 22:00:00,
2013-01-19 16:05:00,60.9,33.8,30.03,WSW,252,3.0,10.0,36,0.00,,---,0.00,VWS V14.01,2013-01-19 22:05:00,
2013-01-19 16:10:00,60.9,34.5,30.03,NNE,28,4.0,10.0,37,0.00,,---,0.00,VWS V14.01,2013-01-19 22:10:00,
2013-01-19 16:15:00,60.7,34.3,30.03,WSW,256,1.0,9.0,37,0.00,,---,0.00,VWS V14.01,2013-01-19 22:15:00,
2013-01-19 16:20:00,60.2,33.8,30.03,WSW,237,2.0,10.0,37,0.00,,---,0.00,VWS V14.01,2013-01-19 22:20:00,
2013-01-19 16:25:00,60.2,33.8,30.03,West,263,3.0,6.0,37,0.00,,---,0.00,VWS V14.01,2013-01-19 22:25:00,
2013-01-19 16:30:00,59.9,34.2,30.04,West,269,3.0,6.0,38,0.00,,---,0.00,VWS V14.01,2013-01-19 22:30:00,
2013-01-19 16:36:00,59.6,34.0,30.04,WSW,252,0.0,6.0,38,0.00,,---,0.00,VWS V14.01,2013-01-19 22:36:00,
2013-01-19 16:40:00,59.6,33.3,30.04,West,261,2.0,9.0,37,0.00,,---,0.00,VWS V14.01,2013-01-19 22:40:00,
2013-01-19 16:41:00,59.6,33.3,30.04,West,262,3.0,3.0,37,0.00,,---,0.00,VWS V14.01,2013-01-19 22:41:00,
2013-01-19 16:46:00,59.5,33.9,30.04,WSW,252,3.0,8.0,38,0.00,,---,0.00,VWS V14.01,2013-01-19 22:46:00,
2013-01-19 16:50:00,59.3,33.7,30.04,WNW,288,3.0,8.0,38,0.00,,---,0.00,VWS V14.01,2013-01-19 22:50:00,
2013-01-19 16:51:00,59.2,33.6,30.04,WSW,252,5.0,5.0,38,0.00,,---,0.00,VWS V14.01,2013-01-19 22:51:00,
2013-01-19 16:56:00,58.7,33.8,30.04,WNW,285,1.0,7.0,39,0.00,,---,0.00,VWS V14.01,2013-01-19 22:56:00,
2013-01-19 17:00:00,58.7,33.8,30.05,West,266,0.0,7.0,39,0.00,,---,0.00,VWS V14.01,2013-01-19 23:00:00,
2013-01-19 17:02:00,58.7,33.8,30.05,West,266,0.0,0.0,39,0.00,,---,0.00,VWS V14.01,2013-01-19 23:02:00,
2013-01-19 17:07:00,58.7,33.8,30.05,West,273,0.0,4.0,39,0.00,,---,0.00,VWS V14.01,2013-01-19 23:07:00,
2013-01-19 17:10:00,58.6,33.7,30.05,WNW,302,2.0,7.0,39,0.00,,---,0.00,VWS V14.01,2013-01-19 23:10:00,
2013-01-19 17:12:00,58.4,33.6,30.05,NW,311,0.0,6.0,39,0.00,,---,0.00,VWS V14.01,2013-01-19 23:12:00,
2013-01-19 17:17:00,58.3,34.1,30.05,WNW,297,0.0,6.0,40,0.00,,---,0.00,VWS V14.01,2013-01-19 23:17:00,
2013-01-19 17:20:00,58.1,33.9,30.05,South,180,0.0,6.0,40,0.00,,---,0.00,VWS V14.01,2013-01-19 23:20:00,
2013-01-19 17:22:00,58.0,33.8,30.05,South,180,2.0,2.0,40,0.00,,---,0.00,VWS V14.01,2013-01-19 23:22:00,
2013-01-19 17:28:00,57.6,34.1,30.05,South,180,0.0,2.0,41,0.00,,---,0.00,VWS V14.01,2013-01-19 23:28:00,
2013-01-19 17:30:00,57.5,34.0,30.05,West,276,0.0,6.0,41,0.00,,---,0.00,VWS V14.01,2013-01-19 23:30:00,
2013-01-19 17:33:00,57.3,33.8,30.05,West,276,0.0,3.0,41,0.00,,---,0.00,VWS V14.01,2013-01-19 23:33:00,
2013-01-19 17:38:00,57.2,33.7,30.05,NNW,334,0.0,4.0,41,0.00,,---,0.00,VWS V14.01,2013-01-19 23:38:00,
2013-01-19 17:40:00,56.9,33.5,30.05,WSW,248,0.0,5.0,41,0.00,,---,0.00,VWS V14.01,2013-01-19 23:40:00,
2013-01-19 17:43:00,56.9,33.5,30.05,WSW,247,0.0,0.0,41,0.00,,---,0.00,VWS V14.01,2013-01-19 23:43:00,
2013-01-19 17:48:00,56.6,33.2,30.06,WSW,248,0.0,2.0,41,0.00,,---,0.00,VWS V14.01,2013-01-19 23:48:00,
2013-01-19 17:50:00,56.5,33.7,30.06,WSW,248,0.0,2.0,42,0.00,,---,0.00,VWS V14.01,2013-01-19 23:50:00,
2013-01-19 17:53:00,56.3,33.5,30.06,WSW,248,0.0,0.0,42,0.00,,---,0.00,VWS V14.01,2013-01-19 23:53:00,
2013-01-19 17:58:00,56.0,33.8,30.06,WSW,248,0.0,2.0,43,0.00,,---,0.00,VWS V14.01,2013-01-19 23:58:00,
2013-01-19 18:00:00,55.9,33.8,30.06,WSW,248,0.0,2.0,43,0.00,,---,0.00,VWS V14.01,2013-01-20 00:00:00,
2013-01-19 18:03:00,55.7,33.6,30.06,WSW,248,0.0,0.0,43,0.00,,---,0.00,VWS V14.01,2013-01-20 00:03:00,
2013-01-19 18:08:00,55.4,33.3,30.06,WSW,248,0.0,2.0,43,0.00,,---,0.00,VWS V14.01,2013-01-20 00:08:00,
2013-01-19 18:10:00,55.3,33.8,30.06,WSW,248,0.0,2.0,44,0.00,,---,0.00,VWS V14.01,2013-01-20 00:10:00,
2013-01-19 18:14:00,55.1,33.6,30.06,WSW,248,0.0,2.0,44,0.00,,---,0.00,VWS V14.01,2013-01-20 00:14:00,
2013-01-19 18:19:00,55.0,34.1,30.06,WSW,248,0.0,2.0,45,0.00,,---,0.00,VWS V14.01,2013-01-20 00:19:00,
2013-01-19 18:20:00,54.8,33.9,30.06,WSW,248,0.0,2.0,45,0.00,,---,0.00,VWS V14.01,2013-01-20 00:20:00,
2013-01-19 18:24:00,54.7,33.8,30.06,WSW,248,0.0,1.0,45,0.00,,---,0.00,VWS V14.01,2013-01-20 00:24:00,
2013-01-19 18:29:00,54.5,34.2,30.06,WSW,248,0.0,3.0,46,0.00,,---,0.00,VWS V14.01,2013-01-20 00:29:00,
2013-01-19 18:30:00,54.4,34.1,30.07,WSW,248,0.0,3.0,46,0.00,,---,0.00,VWS V14.01,2013-01-20 00:30:00,
2013-01-19 18:34:00,54.2,33.9,30.07,WSW,250,0.0,5.0,46,0.00,,---,0.00,VWS V14.01,2013-01-20 00:34:00,
2013-01-19 18:39:00,54.1,33.8,30.07,WSW,250,0.0,5.0,46,0.00,,---,0.00,VWS V14.01,2013-01-20 00:39:00,
2013-01-19 18:40:00,53.9,33.6,30.07,WSW,250,0.0,5.0,46,0.00,,---,0.00,VWS V14.01,2013-01-20 00:40:00,
2013-01-19 18:44:00,53.8,34.1,30.07,WSW,250,0.0,2.0,47,0.00,,---,0.00,VWS V14.01,2013-01-20 00:44:00,
2013-01-19 18:49:00,53.6,33.9,30.08,SSW,211,2.0,4.0,47,0.00,,---,0.00,VWS V14.01,2013-01-20 00:49:00,
2013-01-19 18:50:00,53.6,33.9,30.08,SSW,211,0.0,4.0,47,0.00,,---,0.00,VWS V14.01,2013-01-20 00:50:00,
2013-01-19 18:54:00,53.5,33.8,30.08,SSW,211,0.0,2.0,47,0.00,,---,0.00,VWS V14.01,2013-01-20 00:54:00,
2013-01-19 19:00:00,53.3,33.6,30.08,SSW,211,2.0,2.0,47,0.00,,---,0.00,VWS V14.01,2013-01-20 01:00:00,
2013-01-19 19:05:00,53.1,34.0,30.10,NNW,336,2.0,3.0,48,0.00,,---,0.00,VWS V14.01,2013-01-20 01:05:00,
2013-01-19 19:10:00,52.8,34.2,30.10,NNW,338,1.0,3.0,49,0.00,,---,0.00,VWS V14.01,2013-01-20 01:10:00,
2013-01-19 19:15:00,52.5,33.9,30.10,NNW,337,1.0,4.0,49,0.00,,---,0.00,VWS V14.01,2013-01-20 01:15:00,
2013-01-19 19:20:00,52.2,33.6,30.10,NNW,336,0.0,4.0,49,0.00,,---,0.00,VWS V14.01,2013-01-20 01:20:00,
2013-01-19 19:25:00,51.9,33.9,30.10,NNW,336,0.0,3.0,50,0.00,,---,0.00,VWS V14.01,2013-01-20 01:25:00,
2013-01-19 19:30:00,51.7,34.2,30.11,NNW,336,1.0,3.0,51,0.00,,---,0.00,VWS V14.01,2013-01-20 01:30:00,
2013-01-19 19:35:00,51.4,33.4,30.11,NNW,336,0.0,2.0,50,0.00,,---,0.00,VWS V14.01,2013-01-20 01:35:00,
2013-01-19 19:40:00,51.3,33.8,30.11,NNW,336,0.0,2.0,51,0.00,,---,0.00,VWS V14.01,2013-01-20 01:40:00,
2013-01-19 19:45:00,51.0,33.5,30.12,NNW,336,0.0,2.0,51,0.00,,---,0.00,VWS V14.01,2013-01-20 01:45:00,
2013-01-19 19:50:00,50.7,33.2,30.12,NNW,336,0.0,3.0,51,0.00,,---,0.00,VWS V14.01,2013-01-20 01:50:00,
2013-01-19 19:56:00,50.5,33.1,30.12,NNW,336,0.0,1.0,51,0.00,,---,0.00,VWS V14.01,2013-01-20 01:56:00,
2013-01-19 20:00:00,50.2,33.3,30.13,NNW,336,0.0,1.0,52,0.00,,---,0.00,VWS V14.01,2013-01-20 02:00:00,
2013-01-19 20:01:00,50.2,33.3,30.13,NNW,336,0.0,0.0,52,0.00,,---,0.00,VWS V14.01,2013-01-20 02:01:00,
2013-01-19 20:06:00,49.9,33.0,30.13,NNW,336,0.0,1.0,52,0.00,,---,0.00,VWS V14.01,2013-01-20 02:06:00,
2013-01-19 20:10:00,49.6,33.2,30.13,NNW,336,0.0,2.0,53,0.00,,---,0.00,VWS V14.01,2013-01-20 02:10:00,
2013-01-19 20:12:00,49.5,33.1,30.13,NNW,336,0.0,2.0,53,0.00,,---,0.00,VWS V14.01,2013-01-20 02:12:00,
2013-01-19 20:17:00,49.4,33.0,30.13,NNW,336,2.0,3.0,53,0.00,,---,0.00,VWS V14.01,2013-01-20 02:17:00,
2013-01-19 20:20:00,49.1,32.7,30.13,NNW,336,0.0,3.0,53,0.00,,---,0.00,VWS V14.01,2013-01-20 02:20:00,
2013-01-19 20:22:00,49.1,32.7,30.13,NNW,336,0.0,1.0,53,0.00,,---,0.00,VWS V14.01,2013-01-20 02:22:00,
2013-01-19 20:27:00,48.8,32.9,30.13,NNW,336,0.0,2.0,54,0.00,,---,0.00,VWS V14.01,2013-01-20 02:27:00,
2013-01-19 20:30:00,48.6,32.7,30.13,NNW,336,0.0,2.0,54,0.00,,---,0.00,VWS V14.01,2013-01-20 02:30:00,
2013-01-19 20:32:00,48.6,32.7,30.13,NNW,336,0.0,0.0,54,0.00,,---,0.00,VWS V14.01,2013-01-20 02:32:00,
2013-01-19 20:37:00,48.5,33.1,30.13,NNW,336,4.0,5.0,55,0.00,,---,0.00,VWS V14.01,2013-01-20 02:37:00,
2013-01-19 20:40:00,48.3,32.9,30.13,NNW,336,3.0,5.0,55,0.00,,---,0.00,VWS V14.01,2013-01-20 02:40:00,
2013-01-19 20:42:00,48.2,32.8,30.13,NNW,336,0.0,3.0,55,0.00,,---,0.00,VWS V14.01,2013-01-20 02:42:00,
2013-01-19 20:47:00,48.0,32.6,30.14,NNW,336,0.0,3.0,55,0.00,,---,0.00,VWS V14.01,2013-01-20 02:47:00,
2013-01-19 20:50:00,48.0,33.1,30.14,NNW,336,0.0,3.0,56,0.00,,---,0.00,VWS V14.01,2013-01-20 02:50:00,
2013-01-19 20:52:00,47.9,33.0,30.14,NNW,336,0.0,1.0,56,0.00,,---,0.00,VWS V14.01,2013-01-20 02:52:00,
2013-01-19 20:57:00,47.7,33.2,30.14,NNW,336,1.0,3.0,57,0.00,,---,0.00,VWS V14.01,2013-01-20 02:57:00,
2013-01-19 21:00:00,47.7,33.2,30.14,NNW,336,1.0,3.0,57,0.00,,---,0.00,VWS V14.01,2013-01-20 03:00:00,
2013-01-19 21:02:00,47.6,33.1,30.14,NNW,336,3.0,3.0,57,0.00,,---,0.00,VWS V14.01,2013-01-20 03:02:00,
2013-01-19 21:07:00,47.6,33.6,30.14,NNW,336,0.0,4.0,58,0.00,,---,0.00,VWS V14.01,2013-01-20 03:07:00,
2013-01-19 21:10:00,47.6,33.6,30.14,NNW,336,0.0,4.0,58,0.00,,---,0.00,VWS V14.01,2013-01-20 03:10:00,
2013-01-19 21:12:00,47.6,33.6,30.14,NNW,336,0.0,0.0,58,0.00,,---,0.00,VWS V14.01,2013-01-20 03:12:00,
2013-01-19 21:17:00,47.6,34.0,30.13,NNW,336,0.0,1.0,59,0.00,,---,0.00,VWS V14.01,2013-01-20 03:17:00,
2013-01-19 21:20:00,47.6,34.0,30.13,NNW,336,0.0,2.0,59,0.00,,---,0.00,VWS V14.01,2013-01-20 03:20:00,
2013-01-19 21:22:00,47.6,34.0,30.13,NNW,336,3.0,3.0,59,0.00,,---,0.00,VWS V14.01,2013-01-20 03:22:00,
2013-01-19 21:27:00,47.6,34.0,30.13,NNW,336,1.0,3.0,59,0.00,,---,0.00,VWS V14.01,2013-01-20 03:27:00,
2013-01-19 21:30:00,47.6,34.4,30.13,NNW,336,0.0,3.0,60,0.00,,---,0.00,VWS V14.01,2013-01-20 03:30:00,
2013-01-19 21:33:00,47.6,34.4,30.13,NNW,336,0.0,3.0,60,0.00,,---,0.00,VWS V14.01,2013-01-20 03:33:00,
2013-01-19 21:38:00,47.6,34.4,30.13,WNW,291,2.0,4.0,60,0.00,,---,0.00,VWS V14.01,2013-01-20 03:38:00,
2013-01-19 21:40:00,47.7,34.5,30.13,WNW,291,0.0,4.0,60,0.00,,---,0.00,VWS V14.01,2013-01-20 03:40:00,
2013-01-19 21:43:00,47.7,34.5,30.13,WNW,291,0.0,2.0,60,0.00,,---,0.00,VWS V14.01,2013-01-20 03:43:00,
2013-01-19 21:48:00,47.9,35.1,30.14,North,11,2.0,3.0,61,0.00,,---,0.00,VWS V14.01,2013-01-20 03:48:00,
2013-01-19 21:50:00,47.9,35.1,30.14,North,9,0.0,3.0,61,0.00,,---,0.00,VWS V14.01,2013-01-20 03:50:00,
2013-01-19 21:53:00,47.9,35.1,30.14,North,9,1.0,3.0,61,0.00,,---,0.00,VWS V14.01,2013-01-20 03:53:00,
2013-01-19 21:58:00,48.2,35.4,30.14,North,5,0.0,3.0,61,0.00,,---,0.00,VWS V14.01,2013-01-20 03:58:00,
2013-01-19 22:00:00,48.2,35.4,30.13,NNW,341,2.0,4.0,61,0.00,,---,0.00,VWS V14.01,2013-01-20 04:00:00,
2013-01-19 22:03:00,48.3,35.5,30.13,West,271,1.0,4.0,61,0.00,,---,0.00,VWS V14.01,2013-01-20 04:03:00,
2013-01-19 22:08:00,48.5,35.7,30.13,NNW,327,0.0,4.0,61,0.00,,---,0.00,VWS V14.01,2013-01-20 04:08:00,
2013-01-19 22:10:00,48.5,35.7,30.13,NNW,327,0.0,4.0,61,0.00,,---,0.00,VWS V14.01,2013-01-20 04:10:00,
2013-01-19 22:13:00,48.5,35.7,30.13,NW,326,0.0,3.0,61,0.00,,---,0.00,VWS V14.01,2013-01-20 04:13:00,
2013-01-19 22:18:00,48.6,35.8,30.13,West,265,0.0,5.0,61,0.00,,---,0.00,VWS V14.01,2013-01-20 04:18:00,
2013-01-19 22:20:00,48.6,35.8,30.13,West,265,2.0,5.0,61,0.00,,---,0.00,VWS V14.01,2013-01-20 04:20:00,
2013-01-19 22:23:00,48.6,35.8,30.13,West,265,0.0,2.0,61,0.00,,---,0.00,VWS V14.01,2013-01-20 04:23:00,
2013-01-19 22:29:00,48.6,35.8,30.13,West,265,0.0,2.0,61,0.00,,---,0.00,VWS V14.01,2013-01-20 04:29:00,
2013-01-19 22:30:00,48.6,35.8,30.13,West,265,0.0,2.0,61,0.00,,---,0.00,VWS V14.01,2013-01-20 04:30:00,
2013-01-19 22:34:00,48.6,35.8,30.13,West,272,7.0,7.0,61,0.00,,---,0.00,VWS V14.01,2013-01-20 04:34:00,
2013-01-19 22:39:00,48.6,35.8,30.13,West,267,0.0,7.0,61,0.00,,---,0.00,VWS V14.01,2013-01-20 04:39:00,
2013-01-19 22:40:00,48.6,35.8,30.13,West,267,0.0,7.0,61,0.00,,---,0.00,VWS V14.01,2013-01-20 04:40:00,
2013-01-19 22:44:00,48.6,36.2,30.13,NW,306,0.0,4.0,62,0.00,,---,0.00,VWS V14.01,2013-01-20 04:44:00,
2013-01-19 22:49:00,48.5,36.1,30.13,NW,306,0.0,4.0,62,0.00,,---,0.00,VWS V14.01,2013-01-20 04:49:00,
2013-01-19 22:50:00,48.5,36.1,30.13,NW,306,0.0,4.0,62,0.00,,---,0.00,VWS V14.01,2013-01-20 04:50:00,
2013-01-19 22:54:00,48.5,36.1,30.13,NW,306,0.0,3.0,62,0.00,,---,0.00,VWS V14.01,2013-01-20 04:54:00,
2013-01-19 22:59:00,48.6,36.2,30.13,WNW,302,0.0,3.0,62,0.00,,---,0.00,VWS V14.01,2013-01-20 04:59:00,
2013-01-19 23:00:00,48.6,36.2,30.13,WNW,302,0.0,3.0,62,0.00,,---,0.00,VWS V14.01,2013-01-20 05:00:00,
2013-01-19 23:01:00,48.6,36.2,30.13,WNW,302,0.0,3.0,62,0.00,,---,0.00,VWS V14.01,2013-01-20 05:01:00,
2013-01-19 23:03:00,48.6,36.2,30.13,WNW,302,2.0,2.0,62,0.00,,---,0.00,VWS V14.01,2013-01-20 05:03:00,
2013-01-19 23:08:00,48.6,36.2,30.13,WNW,292,0.0,2.0,62,0.00,,---,0.00,VWS V14.01,2013-01-20 05:08:00,
2013-01-19 23:10:00,48.6,36.2,30.13,NW,307,0.0,4.0,62,0.00,,---,0.00,VWS V14.01,2013-01-20 05:10:00,
2013-01-19 23:13:00,48.5,36.1,30.13,WNW,301,0.0,4.0,62,0.00,,---,0.00,VWS V14.01,2013-01-20 05:13:00,
2013-01-19 23:18:00,48.6,36.2,30.13,WNW,301,0.0,4.0,62,0.00,,---,0.00,VWS V14.01,2013-01-20 05:18:00,
2013-01-19 23:20:00,48.5,36.1,30.13,WNW,301,1.0,4.0,62,0.00,,---,0.00,VWS V14.01,2013-01-20 05:20:00,
2013-01-19 23:23:00,48.5,36.1,30.13,WNW,301,0.0,1.0,62,0.00,,---,0.00,VWS V14.01,2013-01-20 05:23:00,
2013-01-19 23:28:00,48.5,36.1,30.13,WNW,298,1.0,4.0,62,0.00,,---,0.00,VWS V14.01,2013-01-20 05:28:00,
2013-01-19 23:30:00,48.5,36.1,30.12,WNW,298,1.0,4.0,62,0.00,,---,0.00,VWS V14.01,2013-01-20 05:30:00,
2013-01-19 23:33:00,48.5,36.5,30.12,West,269,4.0,4.0,63,0.00,,---,0.00,VWS V14.01,2013-01-20 05:33:00,
2013-01-19 23:38:00,48.5,36.5,30.12,West,271,0.0,4.0,63,0.00,,---,0.00,VWS V14.01,2013-01-20 05:38:00,
2013-01-19 23:40:00,48.5,36.5,30.12,West,271,0.0,4.0,63,0.00,,---,0.00,VWS V14.01,2013-01-20 05:40:00,
2013-01-19 23:43:00,48.5,36.5,30.12,West,271,0.0,0.0,63,0.00,,---,0.00,VWS V14.01,2013-01-20 05:43:00,
2013-01-19 23:48:00,48.3,36.3,30.12,West,271,1.0,2.0,63,0.00,,---,0.00,VWS V14.01,2013-01-20 05:48:00,
2013-01-19 23:50:00,48.5,36.5,30.12,West,271,1.0,2.0,63,0.00,,---,0.00,VWS V14.01,2013-01-20 05:50:00,
2013-01-19 23:53:00,48.5,36.5,30.12,West,271,1.0,1.0,63,0.00,,---,0.00,VWS V14.01,2013-01-20 05:53:00,
2013-01-19 23:58:00,48.3,36.3,30.12,West,271,0.0,1.0,63,0.00,,---,0.00,VWS V14.01,2013-01-20 05:58:00,